Weather History for Agadir Al Massira, Morocco

Change the Weather History Date:

Friday, February 15, 2013

  Actual Average Record
Temperature  
Mean Temperature 64 °F -  
Max Temperature 81 °F - - ()
Min Temperature 46 °F - - ()
Degree Days  
Heating Degree Days 2    
Growing Degree Days 14 (Base 50)    
Moisture  
Dew Point 32 °F    
Average Humidity 30    
Maximum Humidity 62    
Minimum Humidity 7    
Precipitation  
Precipitation 0.00 in - - ()
Sea Level Pressure  
Sea Level Pressure 30.06 in    
Wind  
Wind Speed 6 mph ()    
Max Wind Speed 20 mph    
Max Gust Speed -    
Visibility 6.1 miles    
Events      
T = Trace of Precipitation, MM = Missing Value Source: Averaged Metar Reports

Daily Weather History Graph

Daily Weather History Graph

Search for Another Location

Airport:

Trip Planner

Search our weather history database for the weather conditions in past years. The results will help you decide how hot, cold, wet, or windy it might be!

Date:

Astronomy

Feb. 15, 2013 Rise Set
Actual Time 7:17 AM WET 6:26 PM WET
Civil Twilight 6:53 AM WET 6:50 PM WET
Nautical Twilight 6:25 AM WET 7:18 PM WET
Astronomical Twilight 5:57 AM WET 7:46 PM WET
Moon 10:12 AM WET (2/15) 11:45 PM WET (2/15)
Length of Visible Light 11h 57m
Length of Day
11h 08m
Waxing Crescent, 28% of the Moon is Illuminated
Feb 15
Waxing Crescent
Feb 17
First Quarter
Feb 25
Full
Mar 4
Last Quarter
Mar 11
New

Hourly Weather History & Observations

Time (WET) Temp. Windchill Dew Point Humidity Pressure Visibility Wind Dir Wind Speed Gust Speed Precip Events Conditions
12:00 AM 56 °F - 31 °F 26% 30.09 in 6 mi Calm Calm - -  
12:00 AM 55.4 °F - 30.2 °F 38% 30.06 in - Calm Calm - N/A   Clear
2:00 AM 53.6 °F - 33.8 °F 47% 30.06 in - East 6.9 mph - N/A   Clear
3:00 AM 52 °F - 32 °F 34% 30.07 in 6 mi East 5.8 mph - -  
3:00 AM 51.8 °F - 32.0 °F 47% 30.06 in - East 5.8 mph - N/A   Clear
4:00 AM 46.4 °F 43.5 °F 33.8 °F 62% 30.06 in - ENE 5.8 mph - N/A   Clear
5:00 AM 48.2 °F - 33.8 °F 58% 30.04 in 6.2 mi ENE 6.9 mph - N/A   Unknown
6:00 AM 50 °F - 35 °F 44% 30.07 in 6 mi ENE 9.2 mph - -  
6:00 AM 50.0 °F - 35.6 °F 58% 30.06 in 6.2 mi ENE 9.2 mph - N/A   Unknown
7:00 AM 50.0 °F - 33.8 °F 54% 30.06 in - ENE 9.2 mph - N/A   Clear
8:00 AM 53.6 °F - 35.6 °F 51% 30.09 in - East 9.2 mph - N/A   Clear
9:00 AM 60 °F - 35 °F 28% 30.12 in - East 9.2 mph - -  
9:00 AM 59.0 °F - 35.6 °F 42% 30.09 in - East 9.2 mph - N/A   Clear
10:00 AM 68.0 °F - 33.8 °F 28% 30.09 in - ENE 12.7 mph - N/A   Clear
11:00 AM 73.4 °F - 33.8 °F 23% 30.09 in - East 3.5 mph - N/A   Clear
12:00 PM 80 °F - 28 °F 7% 30.09 in 6 mi East 1.2 mph - -  
12:00 PM 80.6 °F - 28.4 °F 15% 30.09 in - Variable 1.2 mph - N/A   Clear
1:00 PM 82.4 °F - 26.6 °F 13% 30.06 in - WSW 4.6 mph - N/A   Clear
2:00 PM 82.4 °F - 30.2 °F 15% 30.04 in - West 11.5 mph - N/A   Clear
3:00 PM 81 °F - 27 °F 7% 30.03 in - West 15.0 mph - -  
3:00 PM 80.6 °F - 26.6 °F 14% 30.04 in - West 15.0 mph - N/A   Clear
4:00 PM 77.0 °F - 26.6 °F 16% 30.01 in - West 17.3 mph - N/A   Clear
5:00 PM 75.2 °F - 28.4 °F 18% 30.01 in - West 19.6 mph - N/A   Clear
6:00 PM 72 °F - 34 °F 15% 30.01 in 6 mi West 15.0 mph - -  
6:00 PM 71.6 °F - 33.8 °F 25% 30.01 in - West 15.0 mph - N/A   Clear
7:00 PM 69.8 °F - 32.0 °F 25% 30.01 in - West 11.5 mph - N/A   Clear
8:00 PM 69.8 °F - 30.2 °F 23% 30.01 in - West 10.4 mph - N/A   Clear
9:00 PM 67 °F - 30 °F 15% 30.04 in - WSW 5.8 mph - -  
9:00 PM 68.0 °F - 30.2 °F 24% 30.04 in - WSW 5.8 mph - N/A   Clear
10:00 PM 62.6 °F - 33.8 °F 34% 30.06 in - South 8.1 mph - N/A   Clear
11:00 PM 62.6 °F - 32.0 °F 32% 30.06 in - South 10.4 mph - N/A   Clear